Weather History for Hazen, ND

Change the Weather History Date:

Saturday, April 27, 2013

  Actual Average (KN60) Record (KN60)
Temperature  
Mean Temperature 56 °F -  
Max Temperature 77 °F 58 °F 82 °F (2001)
Min Temperature 35 °F 33 °F 23 °F (2008)
Degree Days  
Heating Degree Days 9    
Growing Degree Days 6 (Base 50)    
Moisture  
Dew Point 33 °F    
Average Humidity 42    
Maximum Humidity 87    
Minimum Humidity 19    
Precipitation  
Precipitation 0.00 in - - ()
Sea Level Pressure  
Sea Level Pressure 29.83 in    
Wind  
Wind Speed 6 mph (WSW)    
Max Wind Speed 23 mph    
Max Gust Speed 34 mph    
Visibility 10 miles    
Events      
Averages and records for this station are not official NWS values.
T = Trace of Precipitation, MM = Missing Value Source: NWS Daily Summary

Daily Weather History Graph

Daily Weather History Graph

Search for Another Location

Airport:

Trip Planner

Search our weather history database for the weather conditions in past years. The results will help you decide how hot, cold, wet, or windy it might be!

Date:

Astronomy

Apr. 27, 2013 Rise Set
Actual Time 6:36 AM CDT 8:52 PM CDT
Civil Twilight 6:02 AM CDT 9:26 PM CDT
Nautical Twilight 5:20 AM CDT 10:08 PM CDT
Astronomical Twilight 4:33 AM CDT 10:56 PM CDT
Moon 11:31 PM CDT (4/27) 7:50 AM CDT (4/27)
Length of Visible Light 15h 23m
Length of Day
14h 16m
Waning Gibbous, 95% of the Moon is Illuminated
Apr 27
Waning Gibbous
May 2
Last Quarter
May 9
New
May 17
First Quarter
May 24
Full

Hourly Weather History & Observations

Time (CDT) Temp. Windchill Dew Point Humidity Pressure Visibility Wind Dir Wind Speed Gust Speed Precip Events Conditions
12:15 AM 46.4 °F - 32.0 °F 57% 29.97 in 10.0 mi Calm Calm - N/A   Clear
12:35 AM 44.6 °F - 32.0 °F 61% 29.96 in 10.0 mi Calm Calm - N/A   Clear
12:55 AM 44.6 °F - 32.0 °F 61% 29.96 in 10.0 mi Calm Calm - N/A   Clear
1:15 AM 41.0 °F - 32.0 °F 70% 29.95 in 10.0 mi Calm Calm - N/A   Clear
1:35 AM 39.2 °F - 32.0 °F 75% 29.95 in 10.0 mi Calm Calm - N/A   Clear
1:55 AM 42.8 °F - 32.0 °F 66% 29.94 in 10.0 mi Calm Calm - N/A   Clear
2:15 AM 41.0 °F - 32.0 °F 70% 29.94 in 10.0 mi Calm Calm - N/A   Clear
2:35 AM 37.4 °F - 32.0 °F 81% 29.93 in 10.0 mi Calm Calm - N/A   Clear
2:55 AM 37.4 °F - 32.0 °F 81% 29.93 in 10.0 mi Calm Calm - N/A   Clear
3:15 AM 37.4 °F - 32.0 °F 81% 29.92 in 10.0 mi Calm Calm - N/A   Clear
3:35 AM 37.4 °F - 32.0 °F 81% 29.92 in 10.0 mi Calm Calm - N/A   Partly Cloudy
3:55 AM 35.6 °F - 32.0 °F 87% 29.91 in 10.0 mi Calm Calm - N/A   Clear
4:15 AM 41.0 °F 35.8 °F 32.0 °F 70% 29.91 in 10.0 mi WSW 8.1 mph - N/A   Clear
4:35 AM 46.4 °F 41.9 °F 32.0 °F 57% 29.90 in 10.0 mi SW 9.2 mph - N/A   Clear
4:55 AM 46.4 °F 42.9 °F 32.0 °F 57% 29.90 in 10.0 mi WSW 6.9 mph - N/A   Clear
5:15 AM 46.4 °F 43.5 °F 32.0 °F 57% 29.90 in 10.0 mi SSW 5.8 mph - N/A   Clear
6:35 AM 46.4 °F 43.5 °F 32.0 °F 57% 29.88 in 10.0 mi WSW 5.8 mph - N/A   Clear
6:55 AM 44.6 °F 40.7 °F 32.0 °F 61% 29.88 in 10.0 mi WSW 6.9 mph - N/A   Clear
7:15 AM 44.6 °F 40.7 °F 32.0 °F 61% 29.88 in 10.0 mi WSW 6.9 mph - N/A   Clear
7:35 AM 44.6 °F 43.1 °F 32.0 °F 61% 29.88 in 10.0 mi WSW 3.5 mph - N/A   Clear
7:55 AM 46.4 °F - 35.6 °F 66% 29.88 in 10.0 mi Calm Calm - N/A   Partly Cloudy
8:15 AM 50.0 °F - 35.6 °F 58% 29.88 in 10.0 mi West 4.6 mph - N/A   Clear
8:35 AM 53.6 °F - 35.6 °F 51% 29.88 in 10.0 mi WSW 5.8 mph - N/A   Clear
8:55 AM 55.4 °F - 35.6 °F 47% 29.88 in 10.0 mi WSW 10.4 mph - N/A   Clear
9:15 AM 57.2 °F - 35.6 °F 44% 29.88 in 10.0 mi WSW 15.0 mph - N/A   Clear
9:35 AM 59.0 °F - 35.6 °F 42% 29.88 in 10.0 mi WSW 11.5 mph - N/A   Clear
9:55 AM 62.6 °F - 35.6 °F 37% 29.87 in 10.0 mi WSW 13.8 mph - N/A   Clear
10:15 AM 64.4 °F - 35.6 °F 34% 29.87 in 10.0 mi West 12.7 mph 19.6 mph N/A   Clear
10:35 AM 68.0 °F - 32.0 °F 26% 29.87 in 10.0 mi WNW 16.1 mph - N/A   Clear
10:55 AM 69.8 °F - 32.0 °F 25% 29.87 in 10.0 mi West 15.0 mph 20.7 mph N/A   Clear
11:15 AM 71.6 °F - 32.0 °F 23% 29.86 in 10.0 mi West 12.7 mph 20.7 mph N/A   Clear
11:35 AM 71.6 °F - 32.0 °F 23% 29.85 in 10.0 mi West 15.0 mph 18.4 mph N/A   Clear
11:55 AM 73.4 °F - 32.0 °F 22% 29.85 in 10.0 mi WNW 15.0 mph 19.6 mph N/A   Clear
12:15 PM 75.2 °F - 30.2 °F 19% 29.85 in 10.0 mi West 18.4 mph 23.0 mph N/A   Clear
12:35 PM 75.2 °F - 30.2 °F 19% 29.84 in 10.0 mi WNW 23.0 mph 27.6 mph N/A   Clear
12:55 PM 75.2 °F - 30.2 °F 19% 29.84 in 10.0 mi West 18.4 mph 27.6 mph N/A   Clear
1:15 PM 73.4 °F - 30.2 °F 20% 29.84 in 10.0 mi West 18.4 mph 25.3 mph N/A   Clear
1:35 PM 75.2 °F - 32.0 °F 21% 29.83 in 10.0 mi West 18.4 mph 27.6 mph N/A   Clear
1:55 PM 73.4 °F - 32.0 °F 22% 29.83 in 10.0 mi WNW 18.4 mph 23.0 mph N/A   Clear
2:15 PM 73.4 °F - 32.0 °F 22% 29.82 in 10.0 mi WNW 18.4 mph 23.0 mph N/A   Clear
2:35 PM 73.4 °F - 32.0 °F 22% 29.82 in 10.0 mi WNW 13.8 mph 19.6 mph N/A   Clear
2:55 PM 75.2 °F - 32.0 °F 21% 29.81 in 10.0 mi WNW 12.7 mph 19.6 mph N/A   Clear
3:15 PM 75.2 °F - 32.0 °F 21% 29.80 in 10.0 mi WSW 19.6 mph 34.5 mph N/A   Clear
3:35 PM 75.2 °F - 32.0 °F 21% 29.80 in 10.0 mi West 16.1 mph 27.6 mph N/A   Partly Cloudy
3:55 PM 77.0 °F - 32.0 °F 19% 29.79 in 10.0 mi WNW 18.4 mph 23.0 mph N/A   Partly Cloudy
4:15 PM 75.2 °F - 32.0 °F 21% 29.78 in 10.0 mi West 17.3 mph 25.3 mph N/A   Scattered Clouds
4:35 PM 75.2 °F - 32.0 °F 21% 29.77 in 10.0 mi West 19.6 mph 25.3 mph N/A   Mostly Cloudy
4:55 PM 75.2 °F - 32.0 °F 21% 29.77 in 10.0 mi West 17.3 mph 27.6 mph N/A   Mostly Cloudy
5:15 PM 75.2 °F - 32.0 °F 21% 29.76 in 10.0 mi WSW 12.7 mph - N/A   Mostly Cloudy
5:35 PM 75.2 °F - 32.0 °F 21% 29.75 in 10.0 mi WSW 16.1 mph - N/A   Overcast
5:55 PM 75.2 °F - 32.0 °F 21% 29.74 in 10.0 mi West 12.7 mph - N/A   Mostly Cloudy
6:15 PM 75.2 °F - 32.0 °F 21% 29.74 in 10.0 mi West 16.1 mph - N/A   Mostly Cloudy
6:35 PM 73.4 °F - 32.0 °F 22% 29.73 in 10.0 mi West 13.8 mph 19.6 mph N/A   Partly Cloudy
6:55 PM 73.4 °F - 32.0 °F 22% 29.73 in 10.0 mi West 13.8 mph 17.3 mph N/A   Partly Cloudy
7:15 PM 73.4 °F - 30.2 °F 20% 29.72 in 10.0 mi West 10.4 mph 17.3 mph N/A   Clear
7:35 PM 71.6 °F - 32.0 °F 23% 29.72 in 10.0 mi West 6.9 mph - N/A   Clear
7:55 PM 68.0 °F - 35.6 °F 30% 29.71 in 10.0 mi West 6.9 mph - N/A   Clear
8:15 PM 66.2 °F - 33.8 °F 30% 29.71 in 10.0 mi SW 4.6 mph - N/A   Clear
8:35 PM 60.8 °F - 35.6 °F 39% 29.71 in 10.0 mi SW 4.6 mph - N/A   Clear
8:55 PM 57.2 °F - 35.6 °F 44% 29.71 in 10.0 mi South 5.8 mph - N/A   Clear
9:15 PM 55.4 °F - 35.6 °F 47% 29.71 in 9.0 mi South 5.8 mph - N/A   Clear
9:35 PM 55.4 °F - 35.6 °F 47% 29.71 in 10.0 mi South 3.5 mph - N/A   Clear
9:55 PM 53.6 °F - 35.6 °F 51% 29.71 in 10.0 mi SSE 4.6 mph - N/A   Clear
10:15 PM 51.8 °F - 35.6 °F 54% 29.71 in 10.0 mi SSE 5.8 mph - N/A   Partly Cloudy
10:35 PM 51.8 °F - 35.6 °F 54% 29.70 in 10.0 mi SSE 9.2 mph - N/A   Clear
10:55 PM 53.6 °F - 35.6 °F 51% 29.70 in 10.0 mi Calm Calm - N/A   Partly Cloudy
11:15 PM 55.4 °F - 35.6 °F 47% 29.69 in 10.0 mi South 3.5 mph - N/A   Mostly Cloudy
11:35 PM 53.6 °F - 37.4 °F 54% 29.69 in 10.0 mi SSE 3.5 mph - N/A   Mostly Cloudy
11:55 PM 53.6 °F - 37.4 °F 54% 29.68 in 10.0 mi Calm Calm - N/A   Mostly Cloudy